Time,TemperatureF,DewpointF,PressureIn,WindDirection,WindDirectionDegrees,WindSpeedMPH,WindSpeedGustMPH,Humidity,HourlyPrecipIn,Conditions,Clouds,dailyrainin,SoftwareType,DateUTC
2013-05-03 00:00:00,56.3,52.5,30.36,ENE,68,0.0,0.0,87,0.00,,,0.00,meteohub,2013-05-03 04:00:00,
2013-05-03 00:01:00,56.3,52.5,30.36,ENE,68,0.0,0.0,87,0.00,,,0.00,meteohub,2013-05-03 04:01:00,
2013-05-03 00:02:00,56.3,52.5,30.36,ENE,68,0.0,0.0,87,0.00,,,0.00,meteohub,2013-05-03 04:02:00,
2013-05-03 00:07:00,56.1,52.3,30.36,ENE,68,0.0,0.0,87,0.00,,,0.00,meteohub,2013-05-03 04:07:00,
2013-05-03 00:12:00,56.1,52.3,30.36,ENE,68,0.0,0.0,87,0.00,,,0.00,meteohub,2013-05-03 04:12:00,
2013-05-03 00:17:00,55.9,52.2,30.35,NE,45,0.0,0.0,87,0.00,,,0.00,meteohub,2013-05-03 04:17:00,
2013-05-03 00:23:00,55.9,51.8,30.35,NE,45,0.0,0.0,86,0.00,,,0.00,meteohub,2013-05-03 04:23:00,
2013-05-03 00:28:00,55.8,51.6,30.35,NE,45,0.0,0.0,86,0.00,,,0.00,meteohub,2013-05-03 04:28:00,
2013-05-03 00:33:00,55.8,51.6,30.35,NE,45,0.0,0.0,86,0.00,,,0.00,meteohub,2013-05-03 04:33:00,
2013-05-03 00:38:00,55.4,51.6,30.35,ENE,68,0.0,0.0,87,0.00,,,0.00,meteohub,2013-05-03 04:38:00,
2013-05-03 00:43:00,55.2,51.1,30.35,NE,45,0.0,0.0,86,0.00,,,0.00,meteohub,2013-05-03 04:43:00,
2013-05-03 00:48:00,55.0,50.9,30.35,East,90,0.0,0.0,86,0.00,,,0.00,meteohub,2013-05-03 04:48:00,
2013-05-03 00:53:00,54.9,51.1,30.35,East,90,0.0,0.0,87,0.00,,,0.00,meteohub,2013-05-03 04:53:00,
2013-05-03 00:58:00,54.9,51.1,30.35,East,90,0.0,0.0,87,0.00,,,0.00,meteohub,2013-05-03 04:58:00,
2013-05-03 01:03:00,54.7,50.9,30.35,ENE,68,0.0,0.0,87,0.00,,,0.00,meteohub,2013-05-03 05:03:00,
2013-05-03 01:08:00,54.5,50.7,30.35,ENE,68,0.0,0.0,87,0.00,,,0.00,meteohub,2013-05-03 05:08:00,
2013-05-03 01:14:00,54.5,50.7,30.35,ENE,68,0.0,0.0,87,0.00,,,0.00,meteohub,2013-05-03 05:14:00,
2013-05-03 01:19:00,54.3,50.5,30.35,ENE,68,0.0,0.0,87,0.00,,,0.00,meteohub,2013-05-03 05:19:00,
2013-05-03 01:24:00,54.1,50.7,30.35,ENE,68,0.0,0.0,88,0.00,,,0.00,meteohub,2013-05-03 05:24:00,
2013-05-03 01:29:00,54.0,50.5,30.35,ENE,68,0.0,0.0,88,0.00,,,0.00,meteohub,2013-05-03 05:29:00,
2013-05-03 01:34:00,54.0,50.5,30.34,ENE,68,0.0,0.0,88,0.00,,,0.00,meteohub,2013-05-03 05:34:00,
2013-05-03 01:39:00,53.8,50.4,30.34,ENE,68,0.0,0.0,88,0.00,,,0.00,meteohub,2013-05-03 05:39:00,
2013-05-03 01:44:00,53.6,50.2,30.34,ENE,68,0.0,0.0,88,0.00,,,0.00,meteohub,2013-05-03 05:44:00,
2013-05-03 01:49:00,53.6,50.4,30.34,ENE,68,0.0,0.0,89,0.00,,,0.00,meteohub,2013-05-03 05:49:00,
2013-05-03 01:54:00,53.4,50.5,30.34,ENE,68,0.0,0.0,90,0.00,,,0.00,meteohub,2013-05-03 05:54:00,
2013-05-03 02:00:00,53.2,50.4,30.33,ENE,68,0.0,0.0,90,0.00,,,0.00,meteohub,2013-05-03 06:00:00,
2013-05-03 02:05:00,53.2,50.4,30.33,ENE,68,0.0,0.0,90,0.00,,,0.00,meteohub,2013-05-03 06:05:00,
2013-05-03 02:10:00,53.1,50.2,30.33,ENE,68,0.0,0.0,90,0.00,,,0.00,meteohub,2013-05-03 06:10:00,
2013-05-03 02:15:00,52.9,50.4,30.33,ENE,68,0.0,0.0,91,0.00,,,0.00,meteohub,2013-05-03 06:15:00,
2013-05-03 02:20:00,52.9,50.4,30.32,ENE,68,0.0,0.0,91,0.00,,,0.00,meteohub,2013-05-03 06:20:00,
2013-05-03 02:25:00,52.7,50.2,30.33,ENE,68,0.0,0.0,91,0.00,,,0.00,meteohub,2013-05-03 06:25:00,
2013-05-03 02:31:00,52.7,50.2,30.33,ENE,68,0.0,0.0,91,0.00,,,0.00,meteohub,2013-05-03 06:31:00,
2013-05-03 02:36:00,52.5,50.0,30.32,ENE,68,0.0,0.0,91,0.00,,,0.00,meteohub,2013-05-03 06:36:00,
2013-05-03 02:41:00,52.3,49.8,30.32,ENE,68,0.0,0.0,91,0.00,,,0.00,meteohub,2013-05-03 06:41:00,
2013-05-03 02:46:00,52.2,49.8,30.32,ENE,68,0.0,0.0,92,0.00,,,0.00,meteohub,2013-05-03 06:46:00,
2013-05-03 02:51:00,52.2,49.8,30.32,ENE,68,0.0,0.0,92,0.00,,,0.00,meteohub,2013-05-03 06:51:00,
2013-05-03 02:56:00,52.2,49.8,30.32,ENE,68,0.0,0.0,92,0.00,,,0.00,meteohub,2013-05-03 06:56:00,
2013-05-03 03:01:00,52.2,49.8,30.32,ENE,68,0.0,0.0,92,0.00,,,0.00,meteohub,2013-05-03 07:01:00,
2013-05-03 03:06:00,52.2,49.8,30.32,ENE,68,0.0,0.0,92,0.00,,,0.00,meteohub,2013-05-03 07:06:00,
2013-05-03 03:11:00,52.0,49.6,30.32,ENE,68,0.0,0.0,92,0.00,,,0.00,meteohub,2013-05-03 07:11:00,
2013-05-03 03:17:00,52.0,49.6,30.32,ENE,68,0.0,0.0,92,0.00,,,0.00,meteohub,2013-05-03 07:17:00,
2013-05-03 03:22:00,52.0,49.6,30.32,ENE,68,0.0,0.0,92,0.00,,,0.00,meteohub,2013-05-03 07:22:00,
2013-05-03 03:27:00,51.8,49.6,30.31,ENE,68,0.0,0.0,92,0.00,,,0.00,meteohub,2013-05-03 07:27:00,
2013-05-03 03:32:00,51.8,49.6,30.32,ENE,68,0.0,0.0,92,0.00,,,0.00,meteohub,2013-05-03 07:32:00,
2013-05-03 03:37:00,51.6,49.6,30.32,ENE,68,0.0,0.0,93,0.00,,,0.00,meteohub,2013-05-03 07:37:00,
2013-05-03 03:42:00,51.6,49.6,30.31,ENE,68,0.0,0.0,93,0.00,,,0.00,meteohub,2013-05-03 07:42:00,
2013-05-03 03:47:00,51.6,49.6,30.31,ENE,68,0.0,0.0,93,0.00,,,0.00,meteohub,2013-05-03 07:47:00,
2013-05-03 03:53:00,51.4,49.5,30.31,ENE,68,0.0,0.0,93,0.00,,,0.00,meteohub,2013-05-03 07:53:00,
2013-05-03 03:58:00,51.4,49.5,30.31,ENE,68,0.0,0.0,93,0.00,,,0.00,meteohub,2013-05-03 07:58:00,
2013-05-03 04:03:00,51.3,49.3,30.31,ENE,68,0.0,0.0,93,0.00,,,0.00,meteohub,2013-05-03 08:03:00,
2013-05-03 04:09:00,51.3,49.6,30.31,ENE,68,0.0,0.0,94,0.00,,,0.00,meteohub,2013-05-03 08:09:00,
2013-05-03 04:14:00,51.1,49.5,30.31,ENE,68,0.0,0.0,94,0.00,,,0.00,meteohub,2013-05-03 08:14:00,
2013-05-03 04:19:00,51.1,49.5,30.31,ENE,68,0.0,0.0,94,0.00,,,0.00,meteohub,2013-05-03 08:19:00,
2013-05-03 04:24:00,51.1,49.5,30.31,ENE,68,0.0,0.0,94,0.00,,,0.00,meteohub,2013-05-03 08:24:00,
2013-05-03 04:29:00,50.9,49.3,30.31,ENE,68,0.0,0.0,94,0.00,,,0.00,meteohub,2013-05-03 08:29:00,
2013-05-03 04:35:00,50.9,49.3,30.31,ENE,68,0.0,0.0,94,0.00,,,0.00,meteohub,2013-05-03 08:35:00,
2013-05-03 04:40:00,50.7,49.1,30.31,ENE,68,0.0,0.0,94,0.00,,,0.00,meteohub,2013-05-03 08:40:00,
2013-05-03 04:45:00,50.7,49.1,30.31,ENE,68,0.0,0.0,94,0.00,,,0.00,meteohub,2013-05-03 08:45:00,
2013-05-03 04:50:00,50.7,49.1,30.31,ENE,68,0.0,0.0,94,0.00,,,0.00,meteohub,2013-05-03 08:50:00,
2013-05-03 04:55:00,50.7,49.1,30.31,ENE,68,0.0,0.0,94,0.00,,,0.00,meteohub,2013-05-03 08:55:00,
2013-05-03 05:01:00,50.5,48.9,30.31,ENE,68,0.0,0.0,94,0.00,,,0.00,meteohub,2013-05-03 09:01:00,
2013-05-03 05:06:00,50.5,48.9,30.31,ENE,68,0.0,0.0,94,0.00,,,0.00,meteohub,2013-05-03 09:06:00,
2013-05-03 05:11:00,50.5,48.9,30.31,ENE,68,0.0,0.0,94,0.00,,,0.00,meteohub,2013-05-03 09:11:00,
2013-05-03 05:16:00,50.5,48.9,30.32,ENE,68,0.0,0.0,94,0.00,,,0.00,meteohub,2013-05-03 09:16:00,
2013-05-03 05:21:00,50.5,48.9,30.31,ENE,68,0.0,0.0,94,0.00,,,0.00,meteohub,2013-05-03 09:21:00,
2013-05-03 05:26:00,50.5,49.1,30.31,ENE,68,0.0,0.0,95,0.00,,,0.00,meteohub,2013-05-03 09:26:00,
2013-05-03 05:31:00,50.4,48.9,30.31,ENE,68,0.0,0.0,95,0.00,,,0.00,meteohub,2013-05-03 09:31:00,
2013-05-03 05:37:00,50.4,48.9,30.31,ENE,68,0.0,0.0,95,0.00,,,0.00,meteohub,2013-05-03 09:37:00,
2013-05-03 05:42:00,50.4,48.9,30.31,ENE,68,0.0,0.0,95,0.00,,,0.00,meteohub,2013-05-03 09:42:00,
2013-05-03 05:47:00,50.2,48.7,30.32,ENE,68,0.0,0.0,95,0.00,,,0.00,meteohub,2013-05-03 09:47:00,
2013-05-03 05:52:00,50.2,48.7,30.31,ENE,68,0.0,0.0,95,0.00,,,0.00,meteohub,2013-05-03 09:52:00,
2013-05-03 05:57:00,50.2,48.7,30.31,ENE,68,0.0,0.0,95,0.00,,,0.00,meteohub,2013-05-03 09:57:00,
2013-05-03 06:02:00,50.2,48.7,30.31,ENE,68,0.0,0.0,95,0.00,,,0.00,meteohub,2013-05-03 10:02:00,
2013-05-03 06:07:00,50.2,48.7,30.31,ENE,68,0.0,0.0,95,0.00,,,0.00,meteohub,2013-05-03 10:07:00,
2013-05-03 06:12:00,50.2,48.7,30.32,ENE,68,0.0,0.0,95,0.00,,,0.00,meteohub,2013-05-03 10:12:00,
2013-05-03 06:17:00,50.0,48.6,30.31,East,90,0.0,0.0,95,0.00,,,0.00,meteohub,2013-05-03 10:17:00,
2013-05-03 06:22:00,50.0,48.6,30.31,East,90,0.0,0.0,95,0.00,,,0.00,meteohub,2013-05-03 10:22:00,
2013-05-03 06:27:00,50.0,48.6,30.31,East,90,0.0,0.0,95,0.00,,,0.00,meteohub,2013-05-03 10:27:00,
2013-05-03 06:32:00,50.0,48.6,30.31,East,90,0.0,0.0,95,0.00,,,0.00,meteohub,2013-05-03 10:32:00,
2013-05-03 06:37:00,50.0,48.6,30.32,ENE,68,0.0,0.0,95,0.00,,,0.00,meteohub,2013-05-03 10:37:00,
2013-05-03 06:43:00,50.0,48.6,30.32,ENE,68,0.0,0.0,95,0.00,,,0.00,meteohub,2013-05-03 10:43:00,
2013-05-03 06:48:00,50.2,48.7,30.32,NE,45,0.0,0.0,95,0.00,,,0.00,meteohub,2013-05-03 10:48:00,
2013-05-03 06:53:00,50.2,48.7,30.32,NE,45,0.0,0.0,95,0.00,,,0.00,meteohub,2013-05-03 10:53:00,
2013-05-03 06:58:00,50.2,48.7,30.32,NE,45,0.0,0.0,95,0.00,,,0.00,meteohub,2013-05-03 10:58:00,
2013-05-03 07:03:00,50.2,48.7,30.32,NE,45,0.0,0.0,95,0.00,,,0.00,meteohub,2013-05-03 11:03:00,
2013-05-03 07:08:00,50.2,48.7,30.33,NE,45,0.0,0.0,95,0.00,,,0.00,meteohub,2013-05-03 11:08:00,
2013-05-03 07:13:00,50.2,49.1,30.33,NE,45,0.0,0.0,96,0.00,,,0.00,meteohub,2013-05-03 11:13:00,
2013-05-03 07:18:00,50.2,49.1,30.33,NE,45,0.0,0.0,96,0.00,,,0.00,meteohub,2013-05-03 11:18:00,
2013-05-03 07:24:00,50.4,49.3,30.33,NE,45,0.0,0.0,96,0.00,,,0.00,meteohub,2013-05-03 11:24:00,
2013-05-03 07:29:00,50.5,49.5,30.33,NE,45,0.0,0.0,96,0.00,,,0.00,meteohub,2013-05-03 11:29:00,
2013-05-03 07:34:00,50.7,49.6,30.33,NE,45,0.0,0.0,96,0.00,,,0.00,meteohub,2013-05-03 11:34:00,
2013-05-03 07:39:00,50.9,49.8,30.34,NE,45,0.0,0.0,96,0.00,,,0.00,meteohub,2013-05-03 11:39:00,
2013-05-03 07:44:00,51.1,50.0,30.33,East,90,0.0,0.0,96,0.00,,,0.00,meteohub,2013-05-03 11:44:00,
2013-05-03 07:49:00,51.3,50.2,30.34,East,90,0.0,0.0,96,0.00,,,0.00,meteohub,2013-05-03 11:49:00,
2013-05-03 07:55:00,51.4,50.4,30.34,East,90,0.0,0.0,96,0.00,,,0.00,meteohub,2013-05-03 11:55:00,
2013-05-03 08:00:00,51.8,50.4,30.34,East,90,0.0,0.0,95,0.00,,,0.00,meteohub,2013-05-03 12:00:00,
2013-05-03 08:05:00,52.2,50.7,30.34,East,90,0.0,0.0,95,0.00,,,0.00,meteohub,2013-05-03 12:05:00,
2013-05-03 08:10:00,52.5,51.1,30.34,East,90,0.0,0.0,95,0.00,,,0.00,meteohub,2013-05-03 12:10:00,
2013-05-03 08:15:00,52.9,51.3,30.34,East,90,0.0,0.0,94,0.00,,,0.00,meteohub,2013-05-03 12:15:00,
2013-05-03 08:20:00,53.6,51.6,30.34,East,90,0.0,0.0,93,0.00,,,0.00,meteohub,2013-05-03 12:20:00,
2013-05-03 08:25:00,54.0,51.6,30.34,East,90,0.0,0.0,92,0.00,,,0.00,meteohub,2013-05-03 12:25:00,
2013-05-03 08:30:00,54.3,51.8,30.34,East,90,0.0,0.0,91,0.00,,,0.00,meteohub,2013-05-03 12:30:00,
2013-05-03 08:35:00,54.7,52.2,30.34,East,90,0.0,0.0,91,0.00,,,0.00,meteohub,2013-05-03 12:35:00,
2013-05-03 08:40:00,55.2,52.0,30.34,North,0,0.0,4.0,89,0.00,,,0.00,meteohub,2013-05-03 12:40:00,
2013-05-03 08:45:00,55.6,52.2,30.34,North,0,0.0,4.0,88,0.00,,,0.00,meteohub,2013-05-03 12:45:00,
2013-05-03 08:51:00,55.9,52.2,30.34,North,0,0.0,4.0,87,0.00,,,0.00,meteohub,2013-05-03 12:51:00,
2013-05-03 08:56:00,56.3,52.2,30.34,North,0,0.0,0.0,86,0.00,,,0.00,meteohub,2013-05-03 12:56:00,
2013-05-03 09:01:00,56.7,52.5,30.34,North,0,0.0,0.0,86,0.00,,,0.00,meteohub,2013-05-03 13:01:00,
2013-05-03 09:06:00,57.0,52.9,30.34,North,0,0.0,0.0,86,0.00,,,0.00,meteohub,2013-05-03 13:06:00,
2013-05-03 09:11:00,57.6,52.7,30.34,North,0,0.0,0.0,84,0.00,,,0.00,meteohub,2013-05-03 13:11:00,
2013-05-03 09:16:00,57.9,53.1,30.34,North,0,0.0,2.0,84,0.00,,,0.00,meteohub,2013-05-03 13:16:00,
2013-05-03 09:21:00,58.8,54.0,30.34,North,0,0.0,2.0,84,0.00,,,0.00,meteohub,2013-05-03 13:21:00,
2013-05-03 09:27:00,59.2,53.4,30.34,East,90,2.0,0.0,81,0.00,,,0.00,meteohub,2013-05-03 13:27:00,
2013-05-03 09:32:00,59.4,53.2,30.35,NE,45,0.0,3.0,80,0.00,,,0.00,meteohub,2013-05-03 13:32:00,
2013-05-03 09:37:00,59.5,53.1,30.34,NE,45,0.0,3.0,79,0.00,,,0.00,meteohub,2013-05-03 13:37:00,
2013-05-03 09:42:00,59.7,52.9,30.34,NE,45,0.0,3.0,78,0.00,,,0.00,meteohub,2013-05-03 13:42:00,
2013-05-03 09:47:00,59.9,52.7,30.34,NE,45,0.0,0.0,77,0.00,,,0.00,meteohub,2013-05-03 13:47:00,
2013-05-03 09:53:00,60.3,53.1,30.34,East,90,0.0,3.0,77,0.00,,,0.00,meteohub,2013-05-03 13:53:00,
2013-05-03 09:58:00,60.6,53.1,30.34,East,90,0.0,3.0,76,0.00,,,0.00,meteohub,2013-05-03 13:58:00,
2013-05-03 10:03:00,61.0,53.1,30.34,East,90,0.0,3.0,75,0.00,,,0.00,meteohub,2013-05-03 14:03:00,
2013-05-03 10:08:00,61.3,53.1,30.35,SE,135,0.0,0.0,74,0.00,,,0.00,meteohub,2013-05-03 14:08:00,
2013-05-03 10:13:00,61.7,52.9,30.35,NE,45,0.0,0.0,73,0.00,,,0.00,meteohub,2013-05-03 14:13:00,
2013-05-03 10:18:00,62.1,53.2,30.35,NE,45,0.0,1.0,73,0.00,,,0.00,meteohub,2013-05-03 14:18:00,
2013-05-03 10:24:00,62.4,53.6,30.35,NE,45,0.0,1.0,73,0.00,,,0.00,meteohub,2013-05-03 14:24:00,
2013-05-03 10:29:00,62.8,53.2,30.35,NE,45,2.0,2.0,71,0.00,,,0.00,meteohub,2013-05-03 14:29:00,
2013-05-03 10:34:00,63.0,53.4,30.35,West,270,3.0,0.0,71,0.00,,,0.00,meteohub,2013-05-03 14:34:00,
2013-05-03 10:39:00,63.1,52.3,30.35,NE,45,0.0,3.0,68,0.00,,,0.00,meteohub,2013-05-03 14:39:00,
2013-05-03 10:44:00,63.0,52.7,30.35,NE,45,0.0,4.0,69,0.00,,,0.00,meteohub,2013-05-03 14:44:00,
2013-05-03 10:49:00,63.1,52.9,30.35,East,90,0.0,4.0,69,0.00,,,0.00,meteohub,2013-05-03 14:49:00,
2013-05-03 10:54:00,63.7,53.2,30.36,East,90,0.0,4.0,69,0.00,,,0.00,meteohub,2013-05-03 14:54:00,
2013-05-03 10:59:00,63.5,52.7,30.36,East,90,0.0,0.0,68,0.00,,,0.00,meteohub,2013-05-03 14:59:00,
2013-05-03 11:04:00,63.1,52.3,30.36,ENE,68,0.0,0.0,68,0.00,,,0.00,meteohub,2013-05-03 15:04:00,
2013-05-03 11:09:00,63.0,52.2,30.36,NE,45,0.0,1.0,68,0.00,,,0.00,meteohub,2013-05-03 15:09:00,
2013-05-03 11:15:00,62.4,52.5,30.36,NE,45,0.0,1.0,70,0.00,,,0.00,meteohub,2013-05-03 15:15:00,
2013-05-03 11:20:00,63.1,52.9,30.36,NE,45,0.0,1.0,69,0.00,,,0.00,meteohub,2013-05-03 15:20:00,
2013-05-03 11:25:00,63.7,53.2,30.35,ESE,113,1.0,0.0,69,0.00,,,0.00,meteohub,2013-05-03 15:25:00,
2013-05-03 11:30:00,64.6,53.8,30.35,East,90,0.0,1.0,68,0.00,,,0.00,meteohub,2013-05-03 15:30:00,
2013-05-03 11:35:00,65.7,54.9,30.35,East,90,0.0,1.0,68,0.00,,,0.00,meteohub,2013-05-03 15:35:00,
2013-05-03 11:40:00,66.2,54.5,30.35,East,90,0.0,1.0,66,0.00,,,0.00,meteohub,2013-05-03 15:40:00,
2013-05-03 11:45:00,66.6,54.5,30.35,East,90,0.0,0.0,65,0.00,,,0.00,meteohub,2013-05-03 15:45:00,
2013-05-03 11:50:00,66.7,54.1,30.35,NE,45,0.0,0.0,64,0.00,,,0.00,meteohub,2013-05-03 15:50:00,
2013-05-03 11:55:00,66.7,54.1,30.35,NE,45,0.0,3.0,64,0.00,,,0.00,meteohub,2013-05-03 15:55:00,
2013-05-03 12:00:00,67.1,54.1,30.35,ENE,68,0.0,3.0,63,0.00,,,0.00,meteohub,2013-05-03 16:00:00,
2013-05-03 12:05:00,67.3,54.7,30.35,NE,45,0.0,0.0,64,0.00,,,0.00,meteohub,2013-05-03 16:05:00,
2013-05-03 12:11:00,67.5,54.0,30.35,East,90,0.0,0.0,62,0.00,,,0.00,meteohub,2013-05-03 16:11:00,
2013-05-03 12:16:00,68.2,54.1,30.34,East,90,0.0,1.0,61,0.00,,,0.00,meteohub,2013-05-03 16:16:00,
2013-05-03 12:21:00,68.4,54.0,30.35,East,90,0.0,1.0,60,0.00,,,0.00,meteohub,2013-05-03 16:21:00,
2013-05-03 12:26:00,68.4,54.0,30.35,East,90,0.0,0.0,60,0.00,,,0.00,meteohub,2013-05-03 16:26:00,
2013-05-03 12:31:00,68.2,53.8,30.34,East,90,0.0,0.0,60,0.00,,,0.00,meteohub,2013-05-03 16:31:00,
2013-05-03 12:36:00,68.0,53.1,30.34,East,90,0.0,0.0,59,0.00,,,0.00,meteohub,2013-05-03 16:36:00,
2013-05-03 12:41:00,68.0,54.0,30.33,East,90,0.0,0.0,61,0.00,,,0.00,meteohub,2013-05-03 16:41:00,
2013-05-03 12:46:00,68.5,54.5,30.33,ESE,113,0.0,0.0,61,0.00,,,0.00,meteohub,2013-05-03 16:46:00,
2013-05-03 12:52:00,68.4,53.4,30.33,NE,45,0.0,0.0,59,0.00,,,0.00,meteohub,2013-05-03 16:52:00,
2013-05-03 12:57:00,68.5,54.5,30.33,NE,45,0.0,3.0,61,0.00,,,0.00,meteohub,2013-05-03 16:57:00,
2013-05-03 13:02:00,68.4,53.4,30.33,NE,45,0.0,3.0,59,0.00,,,0.00,meteohub,2013-05-03 17:02:00,
2013-05-03 13:07:00,68.4,53.4,30.33,NE,45,0.0,0.0,59,0.00,,,0.00,meteohub,2013-05-03 17:07:00,
2013-05-03 13:12:00,68.4,53.4,30.32,NE,45,0.0,0.0,59,0.00,,,0.00,meteohub,2013-05-03 17:12:00,
2013-05-03 13:18:00,68.5,53.6,30.32,East,90,4.0,0.0,59,0.00,,,0.00,meteohub,2013-05-03 17:18:00,
2013-05-03 13:24:00,68.2,53.2,30.32,NE,45,0.0,0.0,59,0.00,,,0.00,meteohub,2013-05-03 17:24:00,
2013-05-03 13:29:00,68.2,52.9,30.32,NE,45,0.0,4.0,58,0.00,,,0.00,meteohub,2013-05-03 17:29:00,
2013-05-03 13:34:00,68.5,53.6,30.32,NNE,23,0.0,4.0,59,0.00,,,0.00,meteohub,2013-05-03 17:34:00,
2013-05-03 13:39:00,68.9,53.6,30.32,East,90,1.0,2.0,58,0.00,,,0.00,meteohub,2013-05-03 17:39:00,
2013-05-03 13:44:00,68.5,52.7,30.31,NE,45,0.0,2.0,57,0.00,,,0.00,meteohub,2013-05-03 17:44:00,
2013-05-03 13:49:00,68.9,53.6,30.31,NE,45,0.0,2.0,58,0.00,,,0.00,meteohub,2013-05-03 17:49:00,
2013-05-03 13:54:00,68.9,52.5,30.31,ESE,113,0.0,1.0,56,0.00,,,0.00,meteohub,2013-05-03 17:54:00,
2013-05-03 13:59:00,69.3,52.9,30.31,ESE,113,0.0,2.0,56,0.00,,,0.00,meteohub,2013-05-03 17:59:00,
2013-05-03 14:04:00,69.6,53.2,30.30,East,90,0.0,2.0,56,0.00,,,0.00,meteohub,2013-05-03 18:04:00,
2013-05-03 14:10:00,70.0,53.1,30.30,East,90,0.0,1.0,55,0.00,,,0.00,meteohub,2013-05-03 18:10:00,
2013-05-03 14:15:00,70.0,52.0,30.30,NE,45,0.0,1.0,53,0.00,,,0.00,meteohub,2013-05-03 18:15:00,
2013-05-03 14:20:00,69.8,52.3,30.30,East,90,0.0,1.0,54,0.00,,,0.00,meteohub,2013-05-03 18:20:00,
2013-05-03 14:25:00,69.4,53.1,30.30,NE,45,0.0,5.0,56,0.00,,,0.00,meteohub,2013-05-03 18:25:00,
2013-05-03 14:30:00,69.3,52.9,30.30,NE,45,0.0,5.0,56,0.00,,,0.00,meteohub,2013-05-03 18:30:00,
2013-05-03 14:36:00,69.4,53.1,30.30,NE,45,0.0,1.0,56,0.00,,,0.00,meteohub,2013-05-03 18:36:00,
2013-05-03 14:41:00,69.6,53.2,30.30,North,0,0.0,1.0,56,0.00,,,0.00,meteohub,2013-05-03 18:41:00,
2013-05-03 14:46:00,69.8,52.9,30.30,North,0,0.0,0.0,55,0.00,,,0.00,meteohub,2013-05-03 18:46:00,
2013-05-03 14:51:00,69.4,52.5,30.30,North,0,0.0,0.0,55,0.00,,,0.00,meteohub,2013-05-03 18:51:00,
2013-05-03 14:56:00,69.1,53.2,30.29,North,0,0.0,0.0,57,0.00,,,0.00,meteohub,2013-05-03 18:56:00,
2013-05-03 15:02:00,69.4,53.6,30.29,North,0,0.0,0.0,57,0.00,,,0.00,meteohub,2013-05-03 19:02:00,
2013-05-03 15:07:00,69.1,53.2,30.29,North,0,0.0,0.0,57,0.00,,,0.00,meteohub,2013-05-03 19:07:00,
2013-05-03 15:12:00,68.9,52.5,30.29,North,0,0.0,0.0,56,0.00,,,0.00,meteohub,2013-05-03 19:12:00,
2013-05-03 15:17:00,68.9,52.5,30.29,North,0,0.0,0.0,56,0.00,,,0.00,meteohub,2013-05-03 19:17:00,
2013-05-03 15:22:00,68.7,52.3,30.29,North,0,0.0,0.0,56,0.00,,,0.00,meteohub,2013-05-03 19:22:00,
2013-05-03 15:27:00,68.9,52.5,30.28,North,0,0.0,0.0,56,0.00,,,0.00,meteohub,2013-05-03 19:27:00,
2013-05-03 15:32:00,68.9,52.5,30.28,North,0,0.0,0.0,56,0.00,,,0.00,meteohub,2013-05-03 19:32:00,
2013-05-03 15:37:00,68.9,52.5,30.28,SE,135,0.0,2.0,56,0.00,,,0.00,meteohub,2013-05-03 19:37:00,
2013-05-03 15:42:00,69.3,52.9,30.28,East,90,0.0,2.0,56,0.00,,,0.00,meteohub,2013-05-03 19:42:00,
2013-05-03 15:47:00,69.6,52.7,30.27,East,90,0.0,2.0,55,0.00,,,0.00,meteohub,2013-05-03 19:47:00,
2013-05-03 15:53:00,69.8,52.0,30.27,East,90,0.0,1.0,53,0.00,,,0.00,meteohub,2013-05-03 19:53:00,
2013-05-03 15:58:00,69.8,52.0,30.27,East,90,0.0,1.0,53,0.00,,,0.00,meteohub,2013-05-03 19:58:00,
2013-05-03 16:03:00,69.8,52.9,30.27,East,90,0.0,0.0,55,0.00,,,0.00,meteohub,2013-05-03 20:03:00,
2013-05-03 16:08:00,69.8,52.0,30.27,NE,45,0.0,0.0,53,0.00,,,0.00,meteohub,2013-05-03 20:08:00,
2013-05-03 16:13:00,69.8,52.0,30.27,NE,45,0.0,0.0,53,0.00,,,0.00,meteohub,2013-05-03 20:13:00,
2013-05-03 16:18:00,69.4,52.2,30.27,East,90,1.0,0.0,54,0.00,,,0.00,meteohub,2013-05-03 20:18:00,
2013-05-03 16:23:00,69.3,52.0,30.27,East,90,0.0,0.0,54,0.00,,,0.00,meteohub,2013-05-03 20:23:00,
2013-05-03 16:28:00,69.1,52.2,30.27,SE,135,1.0,1.0,55,0.00,,,0.00,meteohub,2013-05-03 20:28:00,
2013-05-03 16:33:00,69.1,51.8,30.27,East,90,0.0,1.0,54,0.00,,,0.00,meteohub,2013-05-03 20:33:00,
2013-05-03 16:38:00,68.9,51.6,30.27,East,90,0.0,1.0,54,0.00,,,0.00,meteohub,2013-05-03 20:38:00,
2013-05-03 16:43:00,68.9,51.6,30.27,East,90,0.0,1.0,54,0.00,,,0.00,meteohub,2013-05-03 20:43:00,
2013-05-03 16:48:00,69.1,51.8,30.27,East,90,0.0,0.0,54,0.00,,,0.00,meteohub,2013-05-03 20:48:00,
2013-05-03 16:54:00,69.1,51.3,30.27,SE,135,0.0,0.0,53,0.00,,,0.00,meteohub,2013-05-03 20:54:00,
2013-05-03 16:59:00,69.1,51.8,30.26,East,90,0.0,0.0,54,0.00,,,0.00,meteohub,2013-05-03 20:59:00,
2013-05-03 17:04:00,68.9,51.6,30.27,East,90,0.0,1.0,54,0.00,,,0.00,meteohub,2013-05-03 21:04:00,
2013-05-03 17:09:00,68.9,51.6,30.27,East,90,0.0,1.0,54,0.00,,,0.00,meteohub,2013-05-03 21:09:00,
2013-05-03 17:14:00,68.7,51.4,30.27,East,90,0.0,1.0,54,0.00,,,0.00,meteohub,2013-05-03 21:14:00,
2013-05-03 17:19:00,68.7,51.4,30.27,East,90,0.0,0.0,54,0.00,,,0.00,meteohub,2013-05-03 21:19:00,
2013-05-03 17:25:00,68.5,51.3,30.27,East,90,0.0,0.0,54,0.00,,,0.00,meteohub,2013-05-03 21:25:00,
2013-05-03 17:30:00,68.5,50.7,30.27,East,90,0.0,0.0,53,0.00,,,0.00,meteohub,2013-05-03 21:30:00,
2013-05-03 17:35:00,68.4,48.9,30.27,East,90,0.0,0.0,50,0.00,,,0.00,meteohub,2013-05-03 21:35:00,
2013-05-03 17:40:00,68.4,48.4,30.27,East,90,0.0,0.0,49,0.00,,,0.00,meteohub,2013-05-03 21:40:00,
2013-05-03 17:45:00,68.2,48.4,30.27,East,90,0.0,0.0,49,0.00,,,0.00,meteohub,2013-05-03 21:45:00,
2013-05-03 17:50:00,68.2,47.7,30.27,East,90,0.0,4.0,48,0.00,,,0.00,meteohub,2013-05-03 21:50:00,
2013-05-03 17:56:00,68.0,46.9,30.26,North,0,0.0,4.0,47,0.00,,,0.00,meteohub,2013-05-03 21:56:00,
2013-05-03 18:01:00,67.8,47.5,30.27,North,0,0.0,4.0,48,0.00,,,0.00,meteohub,2013-05-03 22:01:00,
2013-05-03 18:06:00,67.6,46.8,30.27,North,0,0.0,0.0,47,0.00,,,0.00,meteohub,2013-05-03 22:06:00,
2013-05-03 18:11:00,67.6,47.3,30.26,North,0,0.0,0.0,48,0.00,,,0.00,meteohub,2013-05-03 22:11:00,
2013-05-03 18:17:00,67.5,47.7,30.27,North,0,0.0,0.0,49,0.00,,,0.00,meteohub,2013-05-03 22:17:00,
2013-05-03 18:22:00,67.3,46.9,30.27,North,0,0.0,0.0,48,0.00,,,0.00,meteohub,2013-05-03 22:22:00,
2013-05-03 18:27:00,67.1,47.3,30.27,North,0,0.0,0.0,49,0.00,,,0.00,meteohub,2013-05-03 22:27:00,
2013-05-03 18:32:00,66.9,47.1,30.27,North,0,0.0,0.0,49,0.00,,,0.00,meteohub,2013-05-03 22:32:00,
2013-05-03 18:37:00,66.9,47.1,30.26,North,0,0.0,0.0,49,0.00,,,0.00,meteohub,2013-05-03 22:37:00,
2013-05-03 18:42:00,66.7,46.9,30.27,North,0,0.0,0.0,49,0.00,,,0.00,meteohub,2013-05-03 22:42:00,
2013-05-03 18:48:00,66.6,47.3,30.27,North,0,0.0,0.0,50,0.00,,,0.00,meteohub,2013-05-03 22:48:00,
2013-05-03 18:53:00,66.2,46.9,30.27,North,0,0.0,0.0,50,0.00,,,0.00,meteohub,2013-05-03 22:53:00,
2013-05-03 18:58:00,66.2,46.9,30.27,North,0,0.0,0.0,50,0.00,,,0.00,meteohub,2013-05-03 22:58:00,
2013-05-03 19:03:00,66.0,47.3,30.27,North,0,0.0,0.0,51,0.00,,,0.00,meteohub,2013-05-03 23:03:00,
2013-05-03 19:08:00,65.8,47.7,30.27,North,0,0.0,0.0,52,0.00,,,0.00,meteohub,2013-05-03 23:08:00,
2013-05-03 19:13:00,65.7,47.5,30.28,North,0,0.0,0.0,52,0.00,,,0.00,meteohub,2013-05-03 23:13:00,
2013-05-03 19:19:00,65.5,44.8,30.28,East,90,0.0,0.0,47,0.00,,,0.00,meteohub,2013-05-03 23:19:00,
2013-05-03 19:24:00,65.1,43.9,30.28,NW,315,0.0,1.0,46,0.00,,,0.00,meteohub,2013-05-03 23:24:00,
2013-05-03 19:29:00,64.9,43.2,30.28,North,0,0.0,3.0,45,0.00,,,0.00,meteohub,2013-05-03 23:29:00,
2013-05-03 19:34:00,64.8,43.5,30.28,North,0,0.0,3.0,46,0.00,,,0.00,meteohub,2013-05-03 23:34:00,
2013-05-03 19:39:00,64.4,43.2,30.29,North,0,0.0,3.0,46,0.00,,,0.00,meteohub,2013-05-03 23:39:00,
2013-05-03 19:44:00,64.0,42.8,30.29,North,0,0.0,0.0,46,0.00,,,0.00,meteohub,2013-05-03 23:44:00,
2013-05-03 19:49:00,63.7,43.2,30.29,NE,45,0.0,2.0,47,0.00,,,0.00,meteohub,2013-05-03 23:49:00,
2013-05-03 19:54:00,63.3,43.3,30.29,NE,45,0.0,2.0,48,0.00,,,0.00,meteohub,2013-05-03 23:54:00,
2013-05-03 19:59:00,63.0,43.0,30.29,NE,45,0.0,2.0,48,0.00,,,0.00,meteohub,2013-05-03 23:59:00,
2013-05-03 20:05:00,62.8,42.8,30.29,NE,45,0.0,0.0,48,0.00,,,0.00,meteohub,2013-05-04 00:05:00,
2013-05-03 20:10:00,62.6,43.7,30.30,NE,45,0.0,0.0,50,0.00,,,0.00,meteohub,2013-05-04 00:10:00,
2013-05-03 20:15:00,62.4,44.1,30.30,NE,45,0.0,0.0,51,0.00,,,0.00,meteohub,2013-05-04 00:15:00,
2013-05-03 20:20:00,62.1,44.2,30.30,NE,45,0.0,0.0,52,0.00,,,0.00,meteohub,2013-05-04 00:20:00,
2013-05-03 20:25:00,61.9,44.1,30.30,North,0,0.0,0.0,52,0.00,,,0.00,meteohub,2013-05-04 00:25:00,
2013-05-03 20:31:00,61.7,44.4,30.30,NE,45,0.0,0.0,53,0.00,,,0.00,meteohub,2013-05-04 00:31:00,
2013-05-03 20:37:00,61.3,44.1,30.30,NE,45,0.0,0.0,53,0.00,,,0.00,meteohub,2013-05-04 00:37:00,
2013-05-03 20:42:00,61.2,44.4,30.30,NE,45,0.0,0.0,54,0.00,,,0.00,meteohub,2013-05-04 00:42:00,
2013-05-03 20:47:00,60.8,44.6,30.30,NE,45,0.0,0.0,55,0.00,,,0.00,meteohub,2013-05-04 00:47:00,
2013-05-03 20:52:00,60.4,44.6,30.31,NE,45,0.0,0.0,56,0.00,,,0.00,meteohub,2013-05-04 00:52:00,
2013-05-03 20:57:00,60.3,45.0,30.31,NE,45,0.0,0.0,57,0.00,,,0.00,meteohub,2013-05-04 00:57:00,
2013-05-03 21:02:00,59.9,44.6,30.32,NE,45,0.0,0.0,57,0.00,,,0.00,meteohub,2013-05-04 01:02:00,
2013-05-03 21:08:00,59.7,45.0,30.32,NE,45,0.0,0.0,58,0.00,,,0.00,meteohub,2013-05-04 01:08:00,
2013-05-03 21:13:00,59.4,45.0,30.32,NE,45,0.0,0.0,59,0.00,,,0.00,meteohub,2013-05-04 01:13:00,
2013-05-03 21:17:00,59.2,44.8,30.32,South,180,0.0,0.0,59,0.00,,,0.00,meteohub,2013-05-04 01:17:00,
2013-05-03 21:23:00,59.0,44.8,30.32,SW,225,0.0,2.0,59,0.00,,,0.00,meteohub,2013-05-04 01:23:00,
2013-05-03 21:28:00,58.8,45.0,30.32,SW,225,0.0,2.0,60,0.00,,,0.00,meteohub,2013-05-04 01:28:00,
2013-05-03 21:33:00,58.5,44.6,30.32,SW,225,0.0,2.0,60,0.00,,,0.00,meteohub,2013-05-04 01:33:00,
2013-05-03 21:38:00,58.1,44.2,30.32,SE,135,2.0,0.0,60,0.00,,,0.00,meteohub,2013-05-04 01:38:00,
2013-05-03 21:43:00,57.7,43.9,30.32,SW,225,0.0,2.0,60,0.00,,,0.00,meteohub,2013-05-04 01:43:00,
2013-05-03 21:48:00,57.6,43.3,30.32,NE,45,2.0,2.0,59,0.00,,,0.00,meteohub,2013-05-04 01:48:00,
2013-05-03 21:53:00,57.2,43.0,30.32,NE,45,1.0,2.0,59,0.00,,,0.00,meteohub,2013-05-04 01:53:00,
2013-05-03 21:58:00,57.2,42.6,30.32,North,0,2.0,2.0,58,0.00,,,0.00,meteohub,2013-05-04 01:58:00,
2013-05-03 22:03:00,56.8,43.2,30.32,NE,45,2.0,2.0,60,0.00,,,0.00,meteohub,2013-05-04 02:03:00,
2013-05-03 22:08:00,56.7,43.0,30.32,SE,135,3.0,3.0,60,0.00,,,0.00,meteohub,2013-05-04 02:08:00,
2013-05-03 22:13:00,56.5,42.8,30.33,North,0,2.0,3.0,60,0.00,,,0.00,meteohub,2013-05-04 02:13:00,
2013-05-03 22:19:00,56.3,42.6,30.33,NW,315,0.0,3.0,60,0.00,,,0.00,meteohub,2013-05-04 02:19:00,
2013-05-03 22:24:00,56.1,42.8,30.33,NE,45,2.0,3.0,61,0.00,,,0.00,meteohub,2013-05-04 02:24:00,
2013-05-03 22:29:00,55.9,42.3,30.33,NE,45,1.0,2.0,60,0.00,,,0.00,meteohub,2013-05-04 02:29:00,
2013-05-03 22:34:00,55.8,42.4,30.33,North,0,2.0,2.0,61,0.00,,,0.00,meteohub,2013-05-04 02:34:00,
2013-05-03 22:40:00,55.6,42.3,30.32,North,0,2.0,3.0,61,0.00,,,0.00,meteohub,2013-05-04 02:40:00,
2013-05-03 22:45:00,55.4,42.6,30.32,South,180,0.0,3.0,62,0.00,,,0.00,meteohub,2013-05-04 02:45:00,
2013-05-03 22:50:00,55.2,42.4,30.33,West,270,1.0,2.0,62,0.00,,,0.00,meteohub,2013-05-04 02:50:00,
2013-05-03 22:56:00,55.0,42.6,30.32,East,90,2.0,2.0,63,0.00,,,0.00,meteohub,2013-05-04 02:56:00,
2013-05-03 23:01:00,55.0,42.6,30.32,NE,45,2.0,2.0,63,0.00,,,0.00,meteohub,2013-05-04 03:01:00,
2013-05-03 23:06:00,54.9,42.4,30.32,NW,315,1.0,2.0,63,0.00,,,0.00,meteohub,2013-05-04 03:06:00,
2013-05-03 23:11:00,54.7,42.8,30.31,North,0,2.0,2.0,64,0.00,,,0.00,meteohub,2013-05-04 03:11:00,
2013-05-03 23:16:00,54.7,42.8,30.32,North,0,0.0,2.0,64,0.00,,,0.00,meteohub,2013-05-04 03:16:00,
2013-05-03 23:22:00,54.5,42.6,30.32,NE,45,3.0,3.0,64,0.00,,,0.00,meteohub,2013-05-04 03:22:00,
2013-05-03 23:27:00,54.3,42.4,30.31,NE,45,1.0,3.0,64,0.00,,,0.00,meteohub,2013-05-04 03:27:00,
2013-05-03 23:32:00,54.1,42.6,30.31,NE,45,3.0,3.0,65,0.00,,,0.00,meteohub,2013-05-04 03:32:00,
2013-05-03 23:37:00,54.1,42.6,30.31,North,0,1.0,3.0,65,0.00,,,0.00,meteohub,2013-05-04 03:37:00,
2013-05-03 23:42:00,54.0,42.4,30.31,North,0,2.0,3.0,65,0.00,,,0.00,meteohub,2013-05-04 03:42:00,
2013-05-03 23:47:00,54.0,42.4,30.32,NE,45,2.0,3.0,65,0.00,,,0.00,meteohub,2013-05-04 03:47:00,
2013-05-03 23:53:00,53.8,42.3,30.31,NE,45,0.0,2.0,65,0.00,,,0.00,meteohub,2013-05-04 03:53:00,
2013-05-03 23:58:00,53.8,42.6,30.31,East,90,2.0,2.0,66,0.00,,,0.00,meteohub,2013-05-04 03:58:00,